| time (UTC) | temp F | wind direction | speed MPH | gust MPH | rain 1hr in | rain 24hr in | rain mn in | humidity % | barometer mb |
| 20260904190549 | 75 | 280 | 4.0 | 10.0 | 0.00 | 0.00 | 0.00 | 83 | 1013.9 |
| 20260904190028 | 75 | 314 | 4.0 | 11.0 | 0.00 | 0.00 | 0.00 | 83 | 1013.9 |
| 20260904185526 | 75 | 299 | 5.0 | 11.0 | 0.00 | 0.00 | 0.00 | 83 | 1014.0 |
| 20260904185025 | 75 | 296 | 5.0 | 12.0 | 0.00 | 0.00 | 0.00 | 83 | 1014.1 |
| 20260904184523 | 74 | 287 | 5.0 | 12.0 | 0.00 | 0.00 | 0.00 | 83 | 1014.2 |
| 20260904184023 | 74 | 311 | 7.0 | 11.0 | 0.00 | 0.00 | 0.00 | 83 | 1014.2 |
| 20260904183523 | 74 | 271 | 4.0 | 11.0 | 0.00 | 0.00 | 0.00 | 83 | 1014.2 |
| 20260904183022 | 74 | 300 | 7.0 | 11.0 | 0.00 | 0.00 | 0.00 | 83 | 1014.3 |
| 20260904182521 | 74 | 285 | 5.0 | 13.0 | 0.00 | 0.00 | 0.00 | 83 | 1014.3 |
| 20260904182020 | 74 | 306 | 7.0 | 13.0 | 0.00 | 0.00 | 0.00 | 82 | 1014.3 |
| 20260904181620 | 74 | 302 | 5.0 | 11.0 | 0.00 | 0.00 | 0.00 | 82 | 1014.2 |
| 20260904181036 | 74 | 290 | 4.0 | 10.0 | 0.00 | 0.00 | 0.00 | 82 | 1014.3 |
| 20260904180537 | 74 | 297 | 5.0 | 9.0 | 0.00 | 0.00 | 0.00 | 82 | 1014.2 |
| 20260904180039 | 74 | 326 | 0.0 | 10.0 | 0.00 | 0.00 | 0.00 | 82 | 1014.3 |
| 20260904175532 | 73 | 298 | 5.0 | 10.0 | 0.00 | 0.00 | 0.00 | 82 | 1014.3 |
| 20260904175033 | 73 | 314 | 4.0 | 11.0 | 0.00 | 0.00 | 0.00 | 82 | 1014.3 |
| 20260904174529 | 73 | 306 | 5.0 | 11.0 | 0.00 | 0.00 | 0.00 | 82 | 1014.2 |
| 20260904174029 | 73 | 272 | 2.0 | 7.0 | 0.00 | 0.00 | 0.00 | 82 | 1014.2 |
| 20260904173527 | 72 | 2 | 1.0 | 8.0 | 0.00 | 0.00 | 0.00 | 81 | 1014.2 |
| 20260904173035 | 72 | 304 | 4.0 | 8.0 | 0.00 | 0.00 | 0.00 | 81 | 1014.2 |
| 20260904172526 | 72 | 275 | 3.0 | 8.0 | 0.00 | 0.00 | 0.00 | 81 | 1014.2 |
| 20260904172025 | 72 | 314 | 1.0 | 6.0 | 0.00 | 0.00 | 0.00 | 81 | 1014.2 |
| 20260904171532 | 72 | 298 | 0.0 | 4.0 | 0.00 | 0.00 | 0.00 | 81 | 1014.2 |
| 20260904171022 | 71 | 303 | 0.0 | 6.0 | 0.00 | 0.00 | 0.00 | 81 | 1014.3 |
| 20260904170525 | 71 | 285 | 3.0 | 7.0 | 0.00 | 0.00 | 0.00 | 81 | 1014.2 |
| 20260904170021 | 71 | 298 | 3.0 | 9.0 | 0.00 | 0.00 | 0.00 | 81 | 1014.3 |
| 20260904165520 | 70 | 307 | 4.0 | 7.0 | 0.00 | 0.00 | 0.00 | 81 | 1014.2 |
| 20260904165019 | 70 | 344 | 0.0 | 6.0 | 0.00 | 0.00 | 0.00 | 81 | 1014.1 |
| 20260904164518 | 69 | 327 | 1.0 | 6.0 | 0.00 | 0.00 | 0.00 | 81 | 1014.2 |
| 20260904164020 | 69 | 328 | 1.0 | 7.0 | 0.00 | 0.00 | 0.00 | 81 | 1014.1 |
| 20260904163515 | 69 | 327 | 2.0 | 7.0 | 0.00 | 0.00 | 0.00 | 80 | 1014.1 |
| 20260904163014 | 69 | 18 | 0.0 | 4.0 | 0.00 | 0.00 | 0.00 | 81 | 1014.0 |
| 20260904162513 | 68 | 339 | 0.0 | 4.0 | 0.00 | 0.00 | 0.00 | 81 | 1014.0 |
| 20260904162017 | 68 | 339 | 1.0 | 4.0 | 0.00 | 0.00 | 0.00 | 81 | 1014.0 |
| 20260904161512 | 68 | 340 | 0.0 | 5.0 | 0.00 | 0.00 | 0.00 | 80 | 1014.0 |
| 20260904161011 | 68 | 340 | 3.0 | 7.0 | 0.00 | 0.00 | 0.00 | 80 | 1014.1 |
| 20260904160511 | 68 | 341 | 3.0 | 7.0 | 0.00 | 0.00 | 0.00 | 80 | 1014.1 |
| 20260904160010 | 68 | 351 | 0.0 | 2.0 | 0.00 | 0.00 | 0.00 | 80 | 1014.1 |
| 20260904155508 | 67 | 302 | 0.0 | 0.0 | 0.00 | 0.00 | 0.00 | 80 | 1014.1 |
| 20260904155008 | 67 | 304 | 0.0 | 4.0 | 0.00 | 0.00 | 0.00 | 80 | 1014.1 |
| 20260904154506 | 66 | 304 | 1.0 | 4.0 | 0.00 | 0.00 | 0.00 | 80 | 1013.9 |
| 20260904154005 | 66 | 128 | 0.0 | 2.0 | 0.00 | 0.00 | 0.00 | 80 | 1014.0 |
| 20260904153503 | 65 | 128 | 0.0 | 2.0 | 0.00 | 0.00 | 0.00 | 80 | 1014.0 |
| 20260904153005 | 65 | 128 | 0.0 | 1.0 | 0.00 | 0.00 | 0.00 | 80 | 1014.0 |
| 20260904152500 | 64 | 113 | 0.0 | 1.0 | 0.00 | 0.00 | 0.00 | 81 | 1014.0 |
| 20260904152059 | 63 | 112 | 0.0 | 1.0 | 0.00 | 0.00 | 0.00 | 81 | 1014.1 |
| 20260904151609 | 63 | 112 | 0.0 | 1.0 | 0.00 | 0.00 | 0.00 | 81 | 1014.2 |
| 20260904151057 | 63 | 112 | 0.0 | 2.0 | 0.00 | 0.00 | 0.00 | 81 | 1014.1 |
| 20260904150556 | 62 | 112 | 0.0 | 4.0 | 0.00 | 0.00 | 0.00 | 81 | 1014.0 |
| 20260904150055 | 62 | 112 | 1.0 | 4.0 | 0.00 | 0.00 | 0.00 | 81 | 1014.0 |
| 20260904145552 | 62 | 114 | 0.0 | 3.0 | 0.00 | 0.00 | 0.00 | 81 | 1013.9 |
| 20260904145052 | 62 | 114 | 0.0 | 3.0 | 0.00 | 0.00 | 0.00 | 81 | 1013.7 |
| 20260904144552 | 62 | 114 | 0.0 | 3.0 | 0.00 | 0.00 | 0.00 | 81 | 1013.7 |
| 20260904144051 | 61 | 114 | 0.0 | 3.0 | 0.00 | 0.00 | 0.00 | 81 | 1013.5 |
| 20260904143552 | 61 | 114 | 0.0 | 0.0 | 0.00 | 0.00 | 0.00 | 81 | 1013.6 |
| 20260904143049 | 61 | 114 | 0.0 | 0.0 | 0.00 | 0.00 | 0.00 | 81 | 1013.7 |
| 20260904142548 | 61 | 114 | 0.0 | 2.0 | 0.00 | 0.00 | 0.00 | 81 | 1013.7 |
| 20260904142047 | 61 | 114 | 0.0 | 2.0 | 0.00 | 0.00 | 0.00 | 81 | 1013.6 |
| 20260904141614 | 61 | 114 | 0.0 | 1.0 | 0.00 | 0.00 | 0.00 | 82 | 1013.7 |
| 20260904141046 | 61 | 114 | 0.0 | 3.0 | 0.00 | 0.00 | 0.00 | 81 | 1013.6 |
| 20260904140545 | 61 | 114 | 0.0 | 3.0 | 0.00 | 0.00 | 0.00 | 81 | 1013.7 |
| 20260904140040 | 61 | 114 | 0.0 | 4.0 | 0.00 | 0.00 | 0.00 | 81 | 1013.6 |
| 20260904135538 | 61 | 114 | 2.0 | 4.0 | 0.00 | 0.00 | 0.00 | 81 | 1013.6 |
| 20260904135037 | 61 | 96 | 0.0 | 3.0 | 0.00 | 0.00 | 0.00 | 81 | 1013.4 |
| 20260904134538 | 61 | 96 | 0.0 | 4.0 | 0.00 | 0.00 | 0.00 | 81 | 1013.4 |
| 20260904134035 | 61 | 96 | 1.0 | 4.0 | 0.00 | 0.00 | 0.00 | 81 | 1013.3 |
| 20260904133535 | 61 | 96 | 1.0 | 6.0 | 0.00 | 0.00 | 0.00 | 81 | 1013.4 |
| 20260904133041 | 61 | 98 | 2.0 | 6.0 | 0.00 | 0.00 | 0.00 | 81 | 1013.3 |
| 20260904132535 | 61 | 102 | 2.0 | 6.0 | 0.00 | 0.00 | 0.00 | 81 | 1013.3 |
| 20260904132034 | 61 | 100 | 3.0 | 6.0 | 0.00 | 0.00 | 0.00 | 81 | 1013.3 |
| 20260904131534 | 61 | 114 | 2.0 | 5.0 | 0.00 | 0.00 | 0.00 | 81 | 1013.2 |
| 20260904131036 | 61 | 96 | 0.0 | 4.0 | 0.00 | 0.00 | 0.00 | 81 | 1013.3 |
| 20260904130533 | 61 | 96 | 1.0 | 4.0 | 0.00 | 0.00 | 0.00 | 81 | 1013.2 |
| 20260904130033 | 61 | 90 | 2.0 | 4.0 | 0.00 | 0.00 | 0.00 | 81 | 1013.1 |
| 20260904125533 | 61 | 88 | 2.0 | 4.0 | 0.00 | 0.00 | 0.00 | 81 | 1013.1 |
| 20260904125037 | 61 | 87 | 0.0 | 2.0 | 0.00 | 0.00 | 0.00 | 81 | 1013.0 |
| 20260904124535 | 61 | 87 | 0.0 | 2.0 | 0.00 | 0.00 | 0.00 | 81 | 1013.0 |
| 20260904124034 | 61 | 87 | 0.0 | 0.0 | 0.00 | 0.00 | 0.00 | 81 | 1013.0 |
| 20260904123532 | 61 | 87 | 0.0 | 0.0 | 0.00 | 0.00 | 0.00 | 81 | 1013.1 |
| 20260904123035 | 61 | 87 | 0.0 | 0.0 | 0.00 | 0.00 | 0.00 | 81 | 1013.1 |
| 20260904122531 | 61 | 87 | 0.0 | 0.0 | 0.00 | 0.00 | 0.00 | 81 | 1013.1 |
| 20260904122031 | 61 | 87 | 0.0 | 3.0 | 0.00 | 0.00 | 0.00 | 81 | 1013.0 |
| 20260904121536 | 61 | 87 | 0.0 | 3.0 | 0.00 | 0.00 | 0.00 | 81 | 1013.0 |
| 20260904121031 | 61 | 71 | 0.0 | 0.0 | 0.00 | 0.00 | 0.00 | 81 | 1013.0 |
| 20260904120530 | 61 | 71 | 0.0 | 0.0 | 0.00 | 0.00 | 0.00 | 81 | 1013.0 |
| 20260904120037 | 61 | 71 | 0.0 | 1.0 | 0.00 | 0.00 | 0.00 | 81 | 1013.1 |
| 20260904115531 | 61 | 71 | 0.0 | 1.0 | 0.00 | 0.00 | 0.00 | 81 | 1013.1 |
| 20260904115030 | 61 | 71 | 0.0 | 1.0 | 0.00 | 0.00 | 0.00 | 81 | 1013.1 |
| 20260904114532 | 61 | 71 | 0.0 | 1.0 | 0.00 | 0.00 | 0.00 | 81 | 1013.2 |
| 20260904114031 | 61 | 71 | 0.0 | 1.0 | 0.00 | 0.00 | 0.00 | 81 | 1013.2 |
| 20260904113529 | 61 | 71 | 0.0 | 1.0 | 0.00 | 0.00 | 0.00 | 81 | 1013.2 |
| 20260904113035 | 61 | 71 | 0.0 | 1.0 | 0.00 | 0.00 | 0.00 | 82 | 1013.2 |
| 20260904112528 | 61 | 71 | 0.0 | 0.0 | 0.00 | 0.00 | 0.00 | 81 | 1013.2 |
| 20260904112031 | 61 | 71 | 0.0 | 2.0 | 0.00 | 0.00 | 0.00 | 81 | 1013.2 |
| 20260904111528 | 61 | 71 | 0.0 | 3.0 | 0.00 | 0.00 | 0.00 | 81 | 1013.2 |
| 20260904111028 | 61 | 71 | 0.0 | 3.0 | 0.00 | 0.00 | 0.00 | 81 | 1013.2 |
| 20260904110528 | 61 | 71 | 0.0 | 3.0 | 0.00 | 0.00 | 0.00 | 82 | 1013.2 |
| 20260904110028 | 61 | 71 | 0.0 | 3.0 | 0.00 | 0.00 | 0.00 | 82 | 1013.1 |
| 20260904105528 | 61 | 71 | 1.0 | 3.0 | 0.00 | 0.00 | 0.00 | 82 | 1013.2 |
| 20260904105024 | 61 | 62 | 0.0 | 1.0 | 0.00 | 0.00 | 0.00 | 82 | 1013.1 |
| 20260904104523 | 62 | 62 | 0.0 | 2.0 | 0.00 | 0.00 | 0.00 | 82 | 1013.1 |
| 20260904104022 | 62 | 62 | 0.0 | 2.0 | 0.00 | 0.00 | 0.00 | 81 | 1013.1 |
| 20260904103523 | 62 | 62 | 0.0 | 0.0 | 0.00 | 0.00 | 0.00 | 82 | 1013.0 |
| 20260904103022 | 62 | 62 | 0.0 | 0.0 | 0.00 | 0.00 | 0.00 | 81 | 1013.0 |
| 20260904102523 | 62 | 62 | 0.0 | 0.0 | 0.00 | 0.00 | 0.00 | 82 | 1013.1 |
| 20260904102021 | 62 | 62 | 0.0 | 0.0 | 0.00 | 0.00 | 0.00 | 81 | 1013.0 |
| 20260904101521 | 62 | 62 | 0.0 | 0.0 | 0.00 | 0.00 | 0.00 | 81 | 1012.9 |
| 20260904101021 | 62 | 62 | 0.0 | 0.0 | 0.00 | 0.00 | 0.00 | 81 | 1013.0 |
| 20260904100521 | 62 | 62 | 0.0 | 0.0 | 0.00 | 0.00 | 0.00 | 81 | 1012.9 |
| 20260904100021 | 61 | 62 | 0.0 | 0.0 | 0.00 | 0.00 | 0.00 | 82 | 1012.9 |
| 20260904095525 | 61 | 62 | 0.0 | 0.0 | 0.00 | 0.00 | 0.00 | 82 | 1013.0 |
| 20260904095021 | 61 | 62 | 0.0 | 0.0 | 0.00 | 0.00 | 0.00 | 82 | 1013.0 |
| 20260904094520 | 61 | 62 | 0.0 | 0.0 | 0.00 | 0.00 | 0.00 | 82 | 1013.0 |
| 20260904094022 | 61 | 62 | 0.0 | 0.0 | 0.00 | 0.00 | 0.00 | 82 | 1013.0 |
| 20260904093524 | 61 | 62 | 0.0 | 0.0 | 0.00 | 0.00 | 0.00 | 82 | 1012.9 |
| 20260904093019 | 61 | 62 | 0.0 | 0.0 | 0.00 | 0.00 | 0.00 | 82 | 1012.8 |
| 20260904092523 | 61 | 62 | 0.0 | 0.0 | 0.00 | 0.00 | 0.00 | 82 | 1012.8 |
| 20260904092019 | 61 | 62 | 0.0 | 0.0 | 0.00 | 0.00 | 0.00 | 82 | 1012.8 |
| 20260904091518 | 61 | 62 | 0.0 | 0.0 | 0.00 | 0.00 | 0.00 | 82 | 1012.9 |
| 20260904091018 | 61 | 62 | 0.0 | 0.0 | 0.00 | 0.00 | 0.00 | 82 | 1012.9 |
| 20260904090518 | 61 | 62 | 0.0 | 0.0 | 0.00 | 0.00 | 0.00 | 82 | 1012.8 |
| 20260904090017 | 61 | 62 | 0.0 | 0.0 | 0.00 | 0.00 | 0.00 | 82 | 1012.9 |
| 20260904085517 | 61 | 62 | 0.0 | 0.0 | 0.00 | 0.00 | 0.00 | 82 | 1012.9 |
| 20260904085017 | 61 | 62 | 0.0 | 0.0 | 0.00 | 0.00 | 0.00 | 82 | 1012.9 |
| 20260904084517 | 61 | 62 | 0.0 | 0.0 | 0.00 | 0.00 | 0.00 | 82 | 1013.0 |
| 20260904084018 | 61 | 62 | 0.0 | 1.0 | 0.00 | 0.00 | 0.00 | 82 | 1013.0 |
| 20260904083515 | 62 | 62 | 0.0 | 1.0 | 0.00 | 0.00 | 0.00 | 82 | 1013.0 |
| 20260904083019 | 62 | 62 | 0.0 | 1.0 | 0.00 | 0.00 | 0.00 | 81 | 1013.1 |
| 20260904082514 | 62 | 62 | 0.0 | 0.0 | 0.00 | 0.00 | 0.00 | 81 | 1013.1 |
| 20260904082015 | 62 | 62 | 0.0 | 1.0 | 0.00 | 0.00 | 0.00 | 82 | 1013.2 |
| 20260904081516 | 62 | 62 | 0.0 | 1.0 | 0.00 | 0.00 | 0.00 | 81 | 1013.2 |
| 20260904081013 | 62 | 62 | 0.0 | 2.0 | 0.00 | 0.00 | 0.00 | 82 | 1013.3 |
| 20260904080512 | 62 | 62 | 0.0 | 3.0 | 0.00 | 0.00 | 0.00 | 81 | 1013.4 |
| 20260904080011 | 62 | 62 | 1.0 | 3.0 | 0.00 | 0.00 | 0.00 | 81 | 1013.4 |
| 20260904075512 | 62 | 26 | 0.0 | 0.0 | 0.00 | 0.00 | 0.00 | 81 | 1013.5 |
| 20260904075011 | 62 | 26 | 0.0 | 0.0 | 0.00 | 0.00 | 0.00 | 82 | 1013.5 |
| 20260904074521 | 62 | 26 | 0.0 | 0.0 | 0.00 | 0.00 | 0.00 | 82 | 1013.4 |
| 20260904074010 | 62 | 26 | 0.0 | 0.0 | 0.00 | 0.00 | 0.00 | 82 | 1013.5 |
| 20260904073513 | 62 | 26 | 0.0 | 0.0 | 0.00 | 0.00 | 0.00 | 82 | 1013.5 |
| 20260904073110 | 62 | 26 | 0.0 | 0.0 | 0.00 | 0.00 | 0.00 | 82 | 1013.4 |
| 20260904072508 | 62 | 26 | 0.0 | 0.0 | 0.00 | 0.00 | 0.00 | 81 | 1013.4 |
| 20260904072008 | 62 | 25 | 0.0 | 0.0 | 0.00 | 0.00 | 0.00 | 81 | 1013.4 |
| 20260904071508 | 62 | 25 | 0.0 | 0.0 | 0.00 | 0.00 | 0.00 | 81 | 1013.4 |
| 20260904071008 | 62 | 25 | 0.0 | 0.0 | 0.00 | 0.00 | 0.00 | 81 | 1013.5 |
| 20260904070506 | 62 | 25 | 0.0 | 0.0 | 0.00 | 0.00 | 0.00 | 81 | 1013.5 |
| 20260904070006 | 62 | 25 | 0.0 | 0.0 | 0.00 | 0.00 | 0.00 | 81 | 1013.5 |
| 20260904065506 | 62 | 25 | 0.0 | 0.0 | 0.00 | 0.00 | 0.00 | 81 | 1013.5 |
| 20260904065006 | 62 | 25 | 0.0 | 0.0 | 0.00 | 0.00 | 0.00 | 81 | 1013.5 |
| 20260904064507 | 62 | 25 | 0.0 | 0.0 | 0.00 | 0.00 | 0.00 | 82 | 1013.6 |
| 20260904064005 | 61 | 25 | 0.0 | 0.0 | 0.00 | 0.00 | 0.00 | 82 | 1013.6 |
| 20260904063505 | 61 | 25 | 0.0 | 0.0 | 0.00 | 0.00 | 0.00 | 82 | 1013.6 |
| 20260904063010 | 61 | 25 | 0.0 | 0.0 | 0.00 | 0.00 | 0.00 | 82 | 1013.6 |
| 20260904062504 | 61 | 25 | 0.0 | 0.0 | 0.00 | 0.00 | 0.00 | 82 | 1013.6 |
| 20260904062004 | 61 | 25 | 0.0 | 0.0 | 0.00 | 0.00 | 0.00 | 82 | 1013.5 |
| 20260904061511 | 61 | 25 | 0.0 | 0.0 | 0.00 | 0.00 | 0.00 | 82 | 1013.6 |
| 20260904061004 | 61 | 25 | 0.0 | 0.0 | 0.00 | 0.00 | 0.00 | 82 | 1013.6 |
| 20260904060504 | 61 | 25 | 0.0 | 0.0 | 0.00 | 0.00 | 0.00 | 82 | 1013.6 |
| 20260904060007 | 61 | 25 | 0.0 | 0.0 | 0.00 | 0.00 | 0.00 | 82 | 1013.5 |
| 20260904055504 | 61 | 25 | 0.0 | 0.0 | 0.00 | 0.00 | 0.00 | 82 | 1013.5 |
| 20260904055003 | 61 | 25 | 0.0 | 0.0 | 0.00 | 0.00 | 0.00 | 82 | 1013.6 |
| 20260904054509 | 61 | 25 | 0.0 | 0.0 | 0.00 | 0.00 | 0.00 | 82 | 1013.6 |
| 20260904054002 | 61 | 25 | 0.0 | 0.0 | 0.00 | 0.00 | 0.00 | 82 | 1013.6 |
| 20260904053503 | 61 | 25 | 0.0 | 0.0 | 0.00 | 0.00 | 0.00 | 82 | 1013.6 |
| 20260904053004 | 61 | 25 | 0.0 | 0.0 | 0.00 | 0.00 | 0.00 | 82 | 1013.6 |
| 20260904052504 | 61 | 25 | 0.0 | 0.0 | 0.00 | 0.00 | 0.00 | 83 | 1013.6 |
| 20260904052004 | 61 | 25 | 0.0 | 0.0 | 0.00 | 0.00 | 0.00 | 83 | 1013.7 |
| 20260904051509 | 61 | 25 | 0.0 | 0.0 | 0.00 | 0.00 | 0.00 | 83 | 1013.7 |
| 20260904051003 | 61 | 25 | 0.0 | 1.0 | 0.00 | 0.00 | 0.00 | 83 | 1013.7 |
| 20260904050503 | 61 | 25 | 0.0 | 1.0 | 0.00 | 0.00 | 0.00 | 83 | 1013.6 |
| 20260904050119 | 61 | 25 | 0.0 | 7.0 | 0.00 | 0.00 | 0.00 | 83 | 1013.5 |
| 20260904045556 | 61 | 25 | 0.0 | 7.0 | 0.00 | 0.00 | 0.00 | 83 | 1013.6 |
| 20260904045056 | 61 | 5 | 0.0 | 5.0 | 0.00 | 0.00 | 0.00 | 83 | 1013.6 |
| 20260904044559 | 61 | 48 | 1.0 | 4.0 | 0.00 | 0.00 | 0.00 | 84 | 1013.6 |
| 20260904044055 | 61 | 20 | 0.0 | 5.0 | 0.00 | 0.00 | 0.00 | 84 | 1013.5 |
| 20260904043555 | 61 | 48 | 1.0 | 3.0 | 0.00 | 0.00 | 0.00 | 84 | 1013.4 |
| 20260904043055 | 61 | 58 | 0.0 | 2.0 | 0.00 | 0.00 | 0.00 | 84 | 1013.5 |
| 20260904042556 | 62 | 58 | 0.0 | 2.0 | 0.00 | 0.00 | 0.00 | 84 | 1013.4 |
| 20260904042058 | 62 | 58 | 0.0 | 1.0 | 0.00 | 0.00 | 0.00 | 84 | 1013.4 |
| 20260904041604 | 62 | 58 | 0.0 | 2.0 | 0.00 | 0.00 | 0.00 | 84 | 1013.3 |
| 20260904041054 | 62 | 57 | 0.0 | 3.0 | 0.00 | 0.00 | 0.00 | 84 | 1013.4 |
| 20260904040554 | 62 | 58 | 0.0 | 3.0 | 0.00 | 0.00 | 0.00 | 84 | 1013.4 |
| 20260904040049 | 62 | 33 | 0.0 | 0.0 | 0.00 | 0.00 | 0.00 | 84 | 1013.2 |
| 20260904035548 | 62 | 33 | 0.0 | 1.0 | 0.00 | 0.00 | 0.00 | 84 | 1013.2 |
| 20260904035047 | 62 | 33 | 0.0 | 1.0 | 0.00 | 0.00 | 0.00 | 84 | 1013.1 |
| 20260904034601 | 63 | 32 | 0.0 | 4.0 | 0.00 | 0.00 | 0.00 | 84 | 1013.0 |
| 20260904034050 | 63 | 32 | 0.0 | 6.0 | 0.00 | 0.00 | 0.00 | 84 | 1013.1 |
| 20260904033549 | 63 | 42 | 1.0 | 6.0 | 0.00 | 0.00 | 0.00 | 84 | 1012.9 |
| 20260904033046 | 63 | 77 | 0.0 | 4.0 | 0.00 | 0.00 | 0.00 | 84 | 1012.8 |
| 20260904032547 | 63 | 77 | 0.0 | 4.0 | 0.00 | 0.00 | 0.00 | 84 | 1012.8 |
| 20260904032047 | 63 | 31 | 0.0 | 4.0 | 0.00 | 0.00 | 0.00 | 84 | 1012.8 |
| 20260904031547 | 63 | 23 | 0.0 | 3.0 | 0.00 | 0.00 | 0.00 | 84 | 1012.8 |
| 20260904031046 | 64 | 44 | 0.0 | 9.0 | 0.00 | 0.00 | 0.00 | 84 | 1012.8 |
| 20260904030546 | 64 | 14 | 1.0 | 9.0 | 0.00 | 0.00 | 0.00 | 84 | 1012.8 |
| 20260904030030 | 64 | 16 | 0.0 | 5.0 | 0.00 | 0.00 | 0.00 | 84 | 1012.7 |
| 20260904025529 | 64 | 341 | 1.0 | 7.0 | 0.00 | 0.00 | 0.00 | 84 | 1012.6 |
| 20260904025029 | 64 | 10 | 0.0 | 10.0 | 0.00 | 0.00 | 0.00 | 84 | 1012.6 |
| 20260904024529 | 65 | 27 | 1.0 | 10.0 | 0.00 | 0.00 | 0.00 | 84 | 1012.5 |
| 20260904024028 | 65 | 11 | 3.0 | 9.0 | 0.00 | 0.00 | 0.00 | 84 | 1012.6 |
| 20260904023532 | 65 | 23 | 0.0 | 9.0 | 0.00 | 0.00 | 0.00 | 84 | 1012.5 |
| 20260904023028 | 65 | 25 | 2.0 | 9.0 | 0.00 | 0.00 | 0.00 | 84 | 1012.4 |
| 20260904022528 | 66 | 70 | 0.0 | 8.0 | 0.00 | 0.00 | 0.00 | 84 | 1012.4 |
| 20260904022027 | 66 | 14 | 1.0 | 9.0 | 0.00 | 0.00 | 0.00 | 84 | 1012.4 |
| 20260904021531 | 66 | 31 | 0.0 | 7.0 | 0.00 | 0.00 | 0.00 | 84 | 1012.3 |
| 20260904021028 | 67 | 64 | 0.0 | 8.0 | 0.00 | 0.00 | 0.00 | 84 | 1012.2 |
| 20260904020527 | 67 | 65 | 2.0 | 8.0 | 0.00 | 0.00 | 0.00 | 85 | 1012.2 |
| 20260904020033 | 68 | 339 | 1.0 | 8.0 | 0.00 | 0.00 | 0.00 | 85 | 1012.2 |
| 20260904015520 | 68 | 341 | 2.0 | 12.0 | 0.00 | 0.00 | 0.00 | 86 | 1012.3 |
| 20260904015020 | 68 | 24 | 3.0 | 12.0 | 0.00 | 0.00 | 0.00 | 86 | 1012.3 |
| 20260904014521 | 69 | 17 | 1.0 | 11.0 | 0.00 | 0.00 | 0.00 | 86 | 1012.2 |
| 20260904014021 | 69 | 4 | 2.0 | 10.0 | 0.00 | 0.00 | 0.00 | 86 | 1012.2 |
| 20260904013519 | 69 | 9 | 3.0 | 10.0 | 0.00 | 0.00 | 0.00 | 86 | 1012.2 |
| 20260904013023 | 69 | 67 | 0.0 | 12.0 | 0.00 | 0.00 | 0.00 | 86 | 1012.3 |
| 20260904012520 | 70 | 9 | 2.0 | 12.0 | 0.00 | 0.00 | 0.00 | 86 | 1012.3 |
| 20260904012019 | 70 | 4 | 2.0 | 11.0 | 0.00 | 0.00 | 0.00 | 85 | 1012.3 |
| 20260904011519 | 71 | 55 | 1.0 | 10.0 | 0.00 | 0.00 | 0.00 | 85 | 1012.4 |
| 20260904011017 | 71 | 60 | 1.0 | 6.0 | 0.00 | 0.00 | 0.00 | 85 | 1012.4 |
| 20260904010517 | 71 | 16 | 0.0 | 9.0 | 0.00 | 0.00 | 0.00 | 84 | 1012.4 |
| 20260904010011 | 71 | 51 | 1.0 | 9.0 | 0.00 | 0.00 | 0.00 | 84 | 1012.4 |
| 20260904005510 | 71 | 353 | 3.0 | 9.0 | 0.00 | 0.00 | 0.00 | 83 | 1012.4 |
| 20260904005009 | 72 | 344 | 1.0 | 10.0 | 0.00 | 0.00 | 0.00 | 83 | 1012.4 |
| 20260904004509 | 72 | 50 | 2.0 | 16.0 | 0.00 | 0.00 | 0.00 | 82 | 1012.4 |
| 20260904004009 | 72 | 260 | 5.0 | 16.0 | 0.00 | 0.00 | 0.00 | 82 | 1012.3 |
| 20260904003509 | 73 | 341 | 2.0 | 13.0 | 0.00 | 0.00 | 0.00 | 81 | 1012.4 |
| 20260904003009 | 73 | 2 | 2.0 | 13.0 | 0.00 | 0.00 | 0.00 | 80 | 1012.3 |
| 20260904002508 | 73 | 16 | 2.0 | 9.0 | 0.00 | 0.00 | 0.00 | 81 | 1012.3 |
| 20260904002008 | 73 | 352 | 1.0 | 11.0 | 0.00 | 0.00 | 0.00 | 80 | 1012.3 |
| 20260904001508 | 74 | 7 | 3.0 | 11.0 | 0.00 | 0.00 | 0.00 | 80 | 1012.3 |
| 20260904001007 | 74 | 19 | 3.0 | 12.0 | 0.00 | 0.00 | 0.00 | 79 | 1012.4 |
| 20260904000508 | 74 | 146 | 3.0 | 11.0 | 0.00 | 0.00 | 0.00 | 79 | 1012.3 |
| 20260904000046 | 74 | 56 | 4.0 | 16.0 | 0.00 | 0.00 | 0.00 | 77 | 1012.4 |
| 20260903235545 | 75 | 37 | 5.0 | 16.0 | 0.00 | 0.00 | 0.00 | 76 | 1012.4 |
| 20260903235046 | 75 | 22 | 6.0 | 11.0 | 0.00 | 0.00 | 0.00 | 76 | 1012.4 |
| 20260903234545 | 75 | 67 | 5.0 | 11.0 | 0.00 | 0.00 | 0.00 | 76 | 1012.4 |
| 20260903234044 | 76 | 47 | 3.0 | 11.0 | 0.00 | 0.00 | 0.00 | 76 | 1012.4 |
| 20260903233544 | 76 | 92 | 3.0 | 12.0 | 0.00 | 0.00 | 0.00 | 76 | 1012.5 |
| 20260903233043 | 76 | 13 | 2.0 | 12.0 | 0.00 | 0.00 | 0.00 | 75 | 1012.5 |
| 20260903232543 | 76 | 346 | 4.0 | 14.0 | 0.00 | 0.00 | 0.00 | 75 | 1012.5 |
| 20260903232043 | 76 | 298 | 3.0 | 13.0 | 0.00 | 0.00 | 0.00 | 75 | 1012.5 |
| 20260903231558 | 77 | 79 | 5.0 | 14.0 | 0.00 | 0.00 | 0.00 | 74 | 1012.6 |
| 20260903231042 | 77 | 360 | 2.0 | 12.0 | 0.00 | 0.00 | 0.00 | 75 | 1012.5 |
| 20260903230543 | 77 | 343 | 4.0 | 13.0 | 0.00 | 0.00 | 0.00 | 76 | 1012.6 |
| 20260903230042 | 78 | 2 | 3.0 | 13.0 | 0.00 | 0.00 | 0.00 | 78 | 1012.6 |
| 20260903225542 | 78 | 8 | 2.0 | 15.0 | 0.00 | 0.00 | 0.00 | 78 | 1012.6 |
| 20260903225043 | 78 | 335 | 4.0 | 15.0 | 0.00 | 0.00 | 0.00 | 79 | 1012.7 |
| 20260903224539 | 78 | 289 | 1.0 | 11.0 | 0.00 | 0.00 | 0.00 | 80 | 1012.7 |
| 20260903224042 | 78 | 6 | 2.0 | 11.0 | 0.00 | 0.00 | 0.00 | 82 | 1012.8 |
| 20260903223539 | 78 | 21 | 2.0 | 13.0 | 0.00 | 0.00 | 0.00 | 82 | 1012.8 |
| 20260903223043 | 78 | 10 | 3.0 | 13.0 | 0.00 | 0.00 | 0.00 | 82 | 1012.8 |
| 20260903222536 | 78 | 53 | 0.0 | 12.0 | 0.00 | 0.00 | 0.00 | 83 | 1012.9 |
| 20260903222037 | 78 | 352 | 3.0 | 12.0 | 0.00 | 0.00 | 0.00 | 82 | 1012.9 |
| 20260903221539 | 78 | 12 | 2.0 | 9.0 | 0.00 | 0.00 | 0.00 | 83 | 1012.8 |
| 20260903221035 | 77 | 301 | 5.0 | 14.0 | 0.00 | 0.00 | 0.00 | 84 | 1012.9 |
| 20260903220534 | 77 | 299 | 6.0 | 14.0 | 0.00 | 0.00 | 0.00 | 84 | 1013.0 |
| 20260903220055 | 77 | 310 | 4.0 | 13.0 | 0.00 | 0.00 | 0.00 | 84 | 1013.2 |
| 20260903215535 | 77 | 308 | 4.0 | 13.0 | 0.00 | 0.00 | 0.00 | 84 | 1013.3 |
| 20260903215032 | 77 | 285 | 4.0 | 14.0 | 0.00 | 0.00 | 0.00 | 84 | 1013.3 |
| 20260903214533 | 77 | 305 | 6.0 | 14.0 | 0.00 | 0.00 | 0.00 | 84 | 1013.4 |
| 20260903214030 | 77 | 325 | 6.0 | 12.0 | 0.00 | 0.00 | 0.00 | 83 | 1013.4 |
| 20260903213529 | 77 | 279 | 6.0 | 12.0 | 0.00 | 0.00 | 0.00 | 83 | 1013.4 |
| 20260903213030 | 77 | 296 | 8.0 | 12.0 | 0.00 | 0.00 | 0.00 | 84 | 1013.4 |
| 20260903212527 | 76 | 263 | 5.0 | 15.0 | 0.00 | 0.00 | 0.00 | 84 | 1013.5 |
| 20260903212030 | 76 | 308 | 6.0 | 13.0 | 0.00 | 0.00 | 0.00 | 84 | 1013.5 |
| 20260903211527 | 77 | 274 | 6.0 | 13.0 | 0.00 | 0.00 | 0.00 | 84 | 1013.4 |
| 20260903211025 | 77 | 293 | 6.0 | 12.0 | 0.00 | 0.00 | 0.00 | 83 | 1013.5 |
| 20260903210524 | 77 | 305 | 7.0 | 12.0 | 0.00 | 0.00 | 0.00 | 84 | 1013.4 |
| 20260903210024 | 77 | 296 | 7.0 | 15.0 | 0.00 | 0.00 | 0.00 | 83 | 1013.6 |
| 20260903205522 | 77 | 291 | 7.0 | 15.0 | 0.00 | 0.00 | 0.00 | 83 | 1013.5 |
| 20260903205022 | 76 | 302 | 5.0 | 11.0 | 0.00 | 0.00 | 0.00 | 83 | 1013.5 |
| 20260903204521 | 76 | 310 | 5.0 | 11.0 | 0.00 | 0.00 | 0.00 | 83 | 1013.5 |
| 20260903204019 | 76 | 275 | 5.0 | 10.0 | 0.00 | 0.00 | 0.00 | 83 | 1013.5 |
| 20260903203522 | 75 | 302 | 2.0 | 10.0 | 0.00 | 0.00 | 0.00 | 83 | 1013.6 |
| 20260903203023 | 74 | 317 | 4.0 | 10.0 | 0.00 | 0.00 | 0.00 | 84 | 1013.6 |
| 20260903202514 | 74 | 260 | 4.0 | 10.0 | 0.00 | 0.00 | 0.00 | 83 | 1013.7 |
| 20260903202014 | 74 | 291 | 4.0 | 12.0 | 0.00 | 0.00 | 0.00 | 84 | 1013.6 |
| 20260903201515 | 73 | 291 | 4.0 | 14.0 | 0.00 | 0.00 | 0.00 | 84 | 1013.7 |
| 20260903201012 | 73 | 267 | 5.0 | 12.0 | 0.00 | 0.00 | 0.00 | 84 | 1013.6 |
| 20260903200513 | 73 | 261 | 5.0 | 12.0 | 0.00 | 0.00 | 0.00 | 83 | 1013.6 |
| 20260903200032 | 73 | 270 | 5.0 | 11.0 | 0.00 | 0.00 | 0.00 | 83 | 1013.7 |
| 20260903195509 | 73 | 269 | 6.0 | 11.0 | 0.00 | 0.00 | 0.00 | 83 | 1013.7 |
| 20260903195009 | 73 | 269 | 2.0 | 14.0 | 0.00 | 0.00 | 0.00 | 83 | 1013.8 |
| 20260903194522 | 73 | 279 | 4.0 | 14.0 | 0.00 | 0.00 | 0.00 | 83 | 1013.9 |
| 20260903194005 | 72 | 264 | 3.0 | 13.0 | 0.00 | 0.00 | 0.00 | 83 | 1014.1 |
| 20260903193504 | 72 | 262 | 7.0 | 13.0 | 0.00 | 0.00 | 0.00 | 83 | 1014.2 |
| 20260903193004 | 72 | 256 | 5.0 | 11.0 | 0.00 | 0.00 | 0.00 | 83 | 1014.2 |
| 20260903192502 | 72 | 262 | 5.0 | 11.0 | 0.00 | 0.00 | 0.00 | 83 | 1014.2 |
| 20260903192003 | 72 | 256 | 4.0 | 11.0 | 0.00 | 0.00 | 0.00 | 83 | 1014.4 |
| 20260903191502 | 71 | 251 | 3.0 | 10.0 | 0.00 | 0.00 | 0.00 | 82 | 1014.3 |
| 20260903191100 | 71 | 304 | 4.0 | 9.0 | 0.00 | 0.00 | 0.00 | 82 | 1014.4 |